Preview of NWS' New Version of Forecast
This preview is not operational and should not be used for support decisions.

Regional Weather Roundup (RWR)

Issued by National Weather Service (NWS)

                            
000
ASUS43 KLSX 221507
RWRMO 

WEATHER SUMMARY FOR MISSOURI
NATIONAL WEATHER SERVICE SPRINGFIELD MO
1000 AM CDT MON APR 22 2019

NOTE: "FAIR" INDICATES FEW OR NO CLOUDS BELOW 12,000 FEET WITH NO
       SIGNIFICANT WEATHER AND/OR OBSTRUCTIONS TO VISIBILITY.
       CURRENT SKY AND/OR WEATHER CONDITIONS ARE NOT AVAILABLE FOR
       CHILLICOTHE AND FARMINGTON.

MOZ001>031-035>038-043-044-053-054-221600-
...NORTHERN AND WESTERN MISSOURI...
  
CITY           SKY/WX    TMP DP  RH WIND       PRES   REMARKS
KANSAS CTY INT CLOUDY    68  56  65 S16       29.91S                  
KANSAS C DTWN  CLOUDY    70  55  59 S20       29.91S                  
LEE'S SUMMIT   CLOUDY    69  55  60 S21G32    29.93R                  
ST JOSEPH      CLOUDY    70  58  65 SW17G25   29.89S                  
CHILLICOTHE      N/A     73  55  53 S21G32    29.91S                  
KIRKSVILLE     MOSUNNY   71  55  56 SW10      29.94S                  
     
$$
MOZ066>068-077>081-088>096-101>105-221600-
...SOUTHWEST MISSOURI...
  
CITY           SKY/WX    TMP DP  RH WIND       PRES   REMARKS
SPRINGFIELD    MOSUNNY   70  54  56 S18G26    30.02F                  
JOPLIN         CLOUDY    68  56  65 SW17G30   30.01S                  
BRANSON        MOSUNNY   68  54  60 S14       30.06F                  
               
$$
MOZ032>034-039>042-045>050-055>058-069>072-221600-
...CENTRAL MISSOURI...  
  
CITY           SKY/WX    TMP DP  RH WIND       PRES   REMARKS
COLUMBIA       SUNNY     73  54  51 S18G24    29.96F                  
JEFFERSON CITY SUNNY     73  53  49 S15G22    29.97F                  
ROLLA          SUNNY     72  53  51 S16       30.02F                  
SEDALIA        SUNNY     68  55  63 SW21G41   29.95S                  
WHITEMAN AFB   CLOUDY    70  55  59 SW23G36   29.90R                  
WARRENSBURG    CLOUDY    68  54  60 S14G23    29.94S                  
OSAGE BEACH    SUNNY     73  54  51 S15       30.00F                  
               
$$
MOZ051-052-059>065-221600-
...EAST CENTRAL MISSOURI...
  
CITY           SKY/WX    TMP DP  RH WIND       PRES   REMARKS
ST LOUIS INTL  PTSUNNY   73  51  46 S14       30.02F                  
SPIRIT OF STL  CLOUDY    73  52  47 S10       30.01F                  
ST CHARLES     MOSUNNY   72  54  53 S15       30.01F                  
                   
$$
MOZ072>076-082>087-097>100-106>115-221600-
...SOUTH CENTRAL AND SOUTHEAST MISSOURI...
  
CITY           SKY/WX    TMP DP  RH WIND       PRES   REMARKS
CAPE GIRARDEAU FAIR      68  53  58 S10       30.12F                  
FARMINGTON     SUNNY     71  54  54 S12       30.08F                  
POPLAR BLUFF   FAIR      67  56  67 SW8       30.13R                  
WEST PLAINS    SUNNY     69  53  56 S9G17     30.10F                  
                                       
$$